Погода Сангары

Хотите узнать прогноз погоды Сангары? Тогда Вам сюда: Погода Сангары

Поиск расширенной информации на нашем сайте:

Полезная информация:

Новости сайта



02.01.2020
Опубликован Долгосрочный прогноз погоды по городам России и ближнего зарубежья на январь 2020 года.
Карты: Прогноз на январь и февраль 2020 года, Сравнение прогнозируемой аномалии приземной температуры воздуха на январь 2020 года по разным моделям.




Погода Сангары - сегодня

Время (UTC), дата Ветер
(°,м/с) 
Видим.   Явления Облачность Т
(°С)
Тd
(°С)
f(%) Тe
(°С)
Pmin
(гПа)
dP
(гПа)
Po
(мм)
O2
(г/м3)
Тmin Tmax R s Состояние
почвы
06 23.11.20 тихо ()   20000 м    ясно 
-24.1 -26.7 79 -24  1009.4  0.3  747  332           
09 23.11.20 тихо ()   10 км    ясно 
-29.5 -32 79 -30  1009.8  0.2  747  339           
12 23.11.20 тихо ()   10 км    ясно 
-31.7 -34.1 79 -32  1010.3  0.4  748  343    -21.4       
15 23.11.20 тихо ()   10 км    ясно 
-33.3 -35.6 80 -33  1010.5  0.1  748  345           
18 23.11.20 тихо ()   10 км    ясно 
-33.4 -35.6 81 -33  1011.3  0.7  748  345           
21 23.11.20 310 (СЗ) 10 км    ясно 
-31 -33.4 79 -32  1011.5  0.3  748  342           
00 24.11.20 тихо ()   20000 м    6/0 верхняя 
[Ci fib]
-32.2 -34.6 79 -32  1012.3  0.7  749  344  -33.4      26  равномерный
сухой снег
100% 
15 24.11.20 тихо ()   10 км  {снег}  ясно 
-27.4 -29.2 85 -27  1016.8  0.8  753  339           
18 24.11.20 тихо ()   10 км  {снег}  ясно 
-31.3 -33.6 80 -31  1018.5  1.4  754  345           
21 24.11.20 тихо ()   10 км    ясно 
-33.1 -35.4 80 -33  1018.7  0.1  754  348           
00 25.11.20 тихо ()   20000 м    3/0 верхняя 
[Ci fib]
-34.9 -37.1 80 -35  1018.3  -0.5  753  350  -35    0.0  26  равномерный
сухой снег
100% 
03 25.11.20 тихо ()   20000 м    ясно 
-28.9 -32.1 74 -29  1017.3  -0.7  753  341           
06 25.11.20 300 (СЗ) 20000 м    4/0 верхняя 
[Ci fib]
-23.6 -25.5 84 -28  1017.1  0.2  753  334           
12 25.11.20 280 (З) 10 км    10/0 верхняя 
[Cs]
-22.5 -24.3 85 -27  1019.2  0.7  755  333    -21.7       
15 25.11.20 280 (З) 10 км    10/0 верхняя 
[Cs]
-23.5 -25.4 84 -27  1020  0.8  755  335           
18 25.11.20 280 (З) 10 км  слаб. снег  10/0 верхняя 
[Cs]
-24.2 -26 85 -25  1020.9  0.7  756  336           
21 25.11.20 280 (З) 10 км  слаб. снег  10/0 верхняя 
[Cs]
-22.6 -24.4 85 -28  1021.1  0.3  756  334           
00 26.11.20 310 (СЗ) 20000 м  в посл. час снег  10/0 верхняя 
[Cs]
-23.7 -25.6 84 -27  1021.3  0.2  756  335  -24.4    0.4  26  равномерный
сухой снег
100% 
03 26.11.20 310 (СЗ) 10 км  слаб. снег  10/0 верхняя 
[Cs]
-23.2 -25 85 -28  1021.7  0.4  756  335           
06 26.11.20 320 (СЗ) 20000 м  в посл. час снег  3/0 верхняя 
[Ci fib]
-24.3 -26.1 85 -29  1023  1.2  757  337           
09 26.11.20 320 (СЗ) 10 км    ясно 
-25.8 -27.6 85 -29  1024.3  1.3  758  339           
12 26.11.20 тихо ()   10 км    ясно 
-28.9 -30.7 84 -29  1024.9  0.4  758  344    -22.5  0.2     
15 26.11.20 тихо ()   10 км    ясно 
-32.5 -34.2 85 -33  1025.5  0.3  759  349           
18 26.11.20 тихо ()   10 км    ясно 
-32.3 -34 85 -32  1025  -0.5  758  349           
21 26.11.20 тихо ()   10 км    ясно 
-31.5 -33.3 84 -32  1024.9  0.1  758  347           
Время (UTC), дата Ветер
(°,м/с) 
Видим.   Явления Облачность Т
(°С)
Тd
(°С)
f(%) Тe
(°С)
Pmin
(гПа)
dP
(гПа)
Po
(мм)
O2
(г/м3)
Тmin Tmax R s Состояние
почвы

Для получения пояснительной информации подведите курсор к названию столбца.

ПОГОДА Сангары - архив

Всё, что Вы хотите узнать о погоде Сангары - удобно и подробно!

Выберите нужную дату (начиная с 1 января 2019* года) и нажмите кнопку "Найти".
Будут отображены архивные сводки погоды по пункту Сангары, начиная с указанной даты.


Отображать данные в формате CSV (для использования в таблицах Excel)


Внимание! Наш архив погоды предназначен исключительно для личного некоммерческого использования в познавательных целях. Если Вам необходимы официальные справки о состоянии погоды (для производственных, юридических, коммерческих и т.п. целей), обращайтесь в органы Росгидромета.

*Примечание: данная дата относится к архиву по метеостанциям СССР (Россия, СНГ, Балтия).
Архив по метеостанциям Зарубежной Европы и Азии (кроме Китая) хранится 10 дней, по другим регионам земного шара (Китай, Африка, Америка, Австралия, Океания) - 1 день.

Сангары - район местоположения метеостанции


Название, широта, долгота, высота метеостанции:
Сангары 64°ш. 127.5°д. 96 м над ур. моря [Российская Федерация]

Дополнительная информация

В oтличие oт бoльшинства пoгoдных сайтoв мы публикуем пoдрoбную метеoинфoрмацию в детальнoм прoфессиoнальнoм фoрмате.

Характеристики температуры и влажнoсти вoздуха измеряются на высoте 2 м в тени вдали oт зданий и деревьев.
Скoрoсть ветра измеряется на высoте 10 м (на урoвне рoста челoвека скoрoсть ветра ниже в 1.5-2 раза). Если метеoстанция нахoдится в гoрoде или в лесу, тo скoрoсть ветра занижена на 2-4 м/с пo сравнению с oткрытым местoм. Скoрoсть ветра над акватoриями крупных рек и oзёр, а также на вершинах хoлмoв на 2-5 м/с выше, чем в oбычных услoвиях.
Атмoсфернoе давление в разных тoчках местнoсти мoжет значительнo oтличаться oт давления на метеoстанции, в зависимoсти oт услoвий рельефа (при пoдъёме на 10 м давление пoнижается примернo на 1 мм рт.ст.).